Flag for Germany Weather past 2 weeks in Paderborn, North Rhine-Westphalia, Germany

Now
63 °F

Passing clouds.


Feels Like: 63 °F
Forecast: 49 / 62 °F
Wind: 8 mph from Southwest

Location: Paderborn / Lippstadt

Current Time: Sep 2, 2015 at 1:04:47 PM

Latest Report: Sep 2, 2015 at 12:20 PM


Visibility: N/A

Pressure: 30.04 "Hg

Humidity: 52%

Dew point: 45 °F

Location of PaderbornLocation

Historic Weather in Paderborn — Graph

°F

Paderborn temperature yesterday

Maximum temperature yesterday: 66 °F (at 12:50 AM)
Minimum temperature yesterday: 52 °F (at 9:50 PM)
Average temperature yesterday: 60 °F

Past Weeks' High & Low Weather Summary

 TemperatureHumidityPressure
High90 °F (Aug 30, 4:20 PM)100% (Aug 27, 7:50 PM)30.27 "Hg (Aug 27, 7:50 PM)
Low46 °F (Sep 2, 6:20 AM)27% (Aug 31, 2:50 PM)29.59 "Hg (Aug 24, 4:20 PM)
Average64 °F68%30.00 "Hg
* Reported Aug 18 11:20 AM — Sep 2 11:50 AM, Paderborn, Weather by CustomWeather, © 2015

Note: Actual official high and low records may vary slightly from our data, if they occured in-between our weather recording intervals... More about our weather records

Advertising

Paderborn weather history for previous 24 hours

 ConditionsComfort  
Time TempWeatherWind HumidityBarometerVisibility
11:50 AM
Wed, Sep 2
63 °FPassing clouds.8 mph56%30.04 "HgN/A
11:20 AM61 °FScattered clouds.8 mph59%30.04 "HgN/A
10:50 AM59 °FScattered clouds.9 mph55%30.04 "HgN/A
10:20 AM57 °FPassing clouds.8 mph77%30.04 "HgN/A
9:50 AM57 °FPassing clouds.10 mph51%30.04 "HgN/A
9:20 AM55 °FSunny.8 mph59%30.04 "Hg10 mi
8:50 AM54 °FSunny.8 mph67%30.04 "Hg10 mi
8:20 AM52 °FSunny.9 mph82%30.04 "Hg10 mi
7:50 AM50 °FSunny.8 mph100%30.04 "Hg10 mi
7:20 AM48 °FClear.8 mph100%30.04 "Hg10 mi
6:50 AM46 °FClear.8 mph100%30.04 "Hg10 mi
6:20 AM46 °FClear.8 mph100%30.04 "Hg10 mi
5:50 AM48 °FClear.8 mph100%30.04 "Hg10 mi
5:20 AM48 °FPassing clouds.8 mph100%30.04 "HgN/A
4:50 AM50 °FPassing clouds.8 mph100%30.04 "HgN/A
4:20 AM52 °FPassing clouds.6 mph100%30.04 "HgN/A
3:50 AM52 °FPassing clouds.6 mph100%30.04 "HgN/A
3:20 AM52 °FPassing clouds.6 mph100%30.04 "HgN/A
2:50 AM52 °FPassing clouds.6 mph100%30.04 "HgN/A
2:20 AM52 °FPassing clouds.6 mph100%30.04 "HgN/A
1:50 AM52 °FPassing clouds.3 mph100%30.04 "HgN/A
1:20 AM50 °FPassing clouds.6 mph100%30.04 "HgN/A
12:50 AM50 °FPassing clouds.5 mph100%30.04 "HgN/A
11:20 PM
Tue, Sep 1
54 °FPassing clouds.7 mph100%30.01 "HgN/A
10:50 PM54 °FPassing clouds.7 mph100%30.01 "HgN/A
10:20 PM54 °FPassing clouds.6 mph94%30.01 "HgN/A
9:50 PM52 °FPassing clouds.7 mph100%30.01 "HgN/A
9:20 PM54 °FPassing clouds.8 mph94%30.01 "HgN/A
8:50 PM54 °FScattered clouds.7 mph94%29.98 "HgN/A
8:20 PM54 °FScattered clouds.5 mph100%29.98 "HgN/A
7:50 PM55 °FScattered showers. Scattered clouds.3 mph100%29.95 "HgN/A
7:20 PM55 °FSprinkles. Scattered clouds.3 mph100%29.95 "Hg5 mi
6:50 PM55 °FScattered clouds.5 mph100%29.95 "Hg5 mi
6:20 PM55 °FScattered clouds.6 mph100%29.95 "Hg5 mi
5:50 PM57 °FPartly sunny.7 mph94%29.92 "Hg5 mi
5:20 PM55 °FLight rain. Partly sunny.8 mph100%29.92 "Hg4 mi
4:50 PM57 °FLight rain. Partly sunny.7 mph100%29.92 "Hg4 mi
4:20 PM57 °FLight rain. Partly sunny.6 mph100%29.89 "Hg3 mi
3:50 PM57 °FRain. Fog.8 mph100%29.89 "Hg2 mi
3:20 PM57 °FRain. Fog.5 mph100%29.89 "Hg2 mi
2:50 PM57 °FRain. Fog.7 mph100%29.89 "Hg2 mi
2:20 PM57 °FLight rain. Mostly cloudy.8 mph100%29.86 "Hg4 mi
1:50 PM57 °FLight rain. Mostly cloudy.7 mph100%29.86 "Hg4 mi
1:20 PM59 °FLight rain. Fog.6 mph100%29.86 "Hg2 mi
Weather by CustomWeather, © 2015

See weather overviewHow to use our weather pages